820  
ASUS43 KDMX 210506  
RWRIA  
 
WEATHER ROUNDUP FOR IOWA  
NATIONAL WEATHER SERVICE DES MOINES IA  
1200 AM CDT SAT APR 21 2018  
 
NOTE: "FAIR" INDICATES FEW OR NO CLOUDS BELOW 12,000 FEET WITH NO  
SIGNIFICANT WEATHER AND/OR S TO VISIBILITY
.  
 
* - THESE STATIONS ARE NOT NWS STATIONS...THUS NOT UNDER NWS  
QUALITY CONTROL. THEY ALSO DO NOT REPORT WEATHER SUCH  
AS PRECIPITATION OR FOG.
 
 
IAZ001>003-012>014-020>022-031>034-043>046-210600-  
NORTHWEST IOWA  
 
CITY SKY/WX TMP DP RH WIND PRES REMARKS
 
CARROLL * CLOUDY 46 37 71 E17 30.32F  
CHEROKEE * CLOUDY 39 32 76 CALM 30.38R  
DENISON * CLOUDY 45 39 81 E9G17 30.34R  
LE MARS * MIX PCPN 43 34 70 NE7 30.36R  
ORANGE CITY * CLOUDY 39 36 87 E8 30.35F WCI 34  
SHELDON * CLOUDY 39 34 81 E9 30.34F WCI 33  
SIOUX CITY CLOUDY 44 33 65 E5 30.34R  
SPENCER CLOUDY 37 30 75 E9 30.36F WCI 30  
STORM LAKE * CLOUDY 37 32 81 E12G17 30.35S WCI 30  

 
 
IAZ055>058-069>071-079>083-090>094-210600-  
SOUTHWEST IOWA  
 
CITY SKY/WX TMP DP RH WIND PRES REMARKS
 
ATLANTIC * CLOUDY 50 28 43 NE5 30.32S  
AUDUBON * CLOUDY 48 32 53 CALM 30.34R  
CLARINDA * CLOUDY 52 27 37 E5 30.35R  
COUNCIL BLFS * CLOUDY 50 30 46 E8 30.31R  
CRESTON * CLOUDY 48 27 43 E7 30.34R  
HARLAN * CLOUDY 48 32 53 E8 30.34S  
LAMONI CLOUDY 51 21 30 E6 30.31F  
RED OAK * CLOUDY 50 28 43 E8 30.32R  
SHENANDOAH * CLOUDY 52 28 40 E12 30.32R  

 
 
IAZ047>049-059>061-072>074-084-210600-  
CENTRAL IOWA  
 
CITY SKY/WX TMP DP RH WIND PRES REMARKS
 
AMES CLOUDY 45 35 68 NE9 30.37F  
ANKENY * CLOUDY 48 30 49 NE5 30.37F  
BOONE * CLOUDY 43 36 75 NE12 30.36F  
CHARITON * CLOUDY 50 27 40 E9 30.33F  
DES MOINES CLOUDY 52 25 35 E9 30.35F  
GRINNELL* CLOUDY 46 27 47 E7 30.38F  
KNOXVILLE * CLOUDY 50 21 32 E8 30.34F  
MARSHALLTOWN CLOUDY 43 37 79 NE10 30.38F  
NEWTON * CLOUDY 48 27 43 NE5 30.37F  
PELLA * CLOUDY 52 19 27 E5 30.37F  
PERRY * MOCLDY 46 32 59 NE17 30.33F  

 
 
IAZ004>006-015-016-023>025-035-036-210600-  
NORTH CENTRAL IOWA  
 
CITY SKY/WX TMP DP RH WIND PRES REMARKS
 
ALGONA * CLOUDY 39 28 65 E12 30.39F WCI 32  
CLARION * CLOUDY 39 30 70 E12 30.39F WCI 32  
ESTHERVILLE CLOUDY 33 29 85 NE7 30.38F WCI 27  
FORT DODGE * CLOUDY 40 34 79 E10 30.38F WCI 33  
MASON CITY CLOUDY 34 29 82 N5 30.43F WCI 30  
FOREST CITY * FAIR 37 32 81 CALM 30.41F  
WEBSTER CITY * CLOUDY 43 32 65 E8 30.36F  
IOWA FALLS * MOCLDY 43 32 64 NE7 30.41F  

 
 
IAZ007>011-017>019-026>030-037>042-050>054-066-210600-  
NORTHEAST IOWA  
 
CITY SKY/WX TMP DP RH WIND PRES REMARKS
 
CEDAR RAPIDS FAIR 49 23 36 E7 30.38F  
CHARLES CITY * FAIR 37 27 65 NE6 30.43S WCI 33  
CLINTON * FAIR 42 31 64 E7 30.41S  
DECORAH * MOCLDY 39 27 60 CALM 30.41F  
DUBUQUE FAIR 46 24 42 E5 30.41S  
MONTICELLO * FAIR 41 34 75 CALM 30.40S  
OELWEIN * MOCLDY 41 36 81 NE7 30.42R  
WATERLOO FAIR 40 33 76 N5 30.41  

 
 
IAZ064-065-067-068-078-210600-  
EAST CENTRAL IOWA  
 
CITY SKY/WX TMP DP RH WIND PRES REMARKS
 
DAVENPORT FAIR 45 27 49 E5 30.42S  
IOWA CITY FAIR 47 30 51 CALM 30.40F  
MT. PLEASANT * CLOUDY 45 25 45 E7 30.38S  
MUSCATINE * FAIR 46 27 46 N3 30.40F  
QUAD CITIES FAIR 43 31 62 E3 30.40R  

 
 
IAZ062-063-075>077-085>089-095>099-210600-  
SOUTHEAST IOWA  
 
CITY SKY/WX TMP DP RH WIND PRES REMARKS
 
BURLINGTON CLOUDY 52 21 29 E5 30.37F  
FAIRFIELD * CLOUDY 46 25 42 E7 30.36F  
FORT MADISON * CLOUDY 48 27 43 E5 30.38S  
KEOKUK * CLOUDY 48 27 43 E6 30.36F  
OSKALOOSA * FAIR 47 25 41 E7 30.35F  
CENTERVILLE * N/A 46 25 42 CALM 30.35F  
OTTUMWA CLOUDY 49 24 37 E7 30.35F  
WASHINGTON * CLOUDY 45 27 49 E7 30.39F  

 
 
ABBREVIATIONS USED IN REMARKS  
TC - TEMPERATURES IN CELSIUS  
WCI - WIND CHILL INDEX  
HX - HEAT INDEX  
VSB - VISIBILITY  

 
 
 
 
CLICK HERE TO GO TO PREVIOUS BULLETINS.

The Nexlab IA Page Main Text Page